Probability
0 0 0 0 0 0 0 0 0 0 0 0 0 0 0 0 0 1 0 0 0 0 0 0 0 0 0 0 0 0 0 0 0 0 0 0 0 0 0 0 0 0 0
0 0 0 0 0 0 0 0 0 0 0 0 0 0 0 0 0 1 0 0 0 0 0 0 0 0 0 0 0 0 0 0 0 0 0 0 0 0 0 0 0 0 0
1 0 0 0 0 0 0 0 0 0 0 0 0 0 0 0 0 0 0 0 0 0 0 0 0 0 0 0 0 0 0 0 0 0 0 0 0 0 0 0 0 0 0
1 0 0 0 0 0 0 0 0 0 0 0 0 0 1 0 0 0 0 0 0 0 0 0 0 0 0 0 0 0 0 0 0 0 0 0 0 0 0 0 0 0 0
1 0 0 0 0 0 0 0 1 1 1 1 1 1 2 2 1 1 0 0 0 0 0 0 0 0 0 0 0 0 0 0 0 0 0 0 0 0 0 0 0 0 0
0 0 0 0 0 0 0 1 3 5 6 6 4 4 5 6 6 4 2 1 0 0 1 1 0 0 0 0 0 0 0 0 0 0 0 0 0 0 0 0 0 0 0
0 0 0 0 0 1 1 3 6 11 13 12 10 9 10 11 12 10 8 6 3 2 2 2 1 0 0 0 0 0 0 0 0 0 0 0 0 0 0 0 0 0 0
0 0 0 0 0 1 2 3 7 10 12 14 17 18 19 20 19 18 16 13 10 7 4 3 2 1 0 0 0 0 0 0 0 0 0 0 0 0 0 0 0 0 0
0 0 0 0 0 1 1 3 5 6 6 10 18 23 26 28 26 22 21 19 17 12 7 4 3 1 0 0 0 0 0 0 0 0 0 0 0 0 0 0 0 0 0
0 0 0 0 0 0 0 1 4 4 4 6 12 17 21 23 20 17 18 21 21 16 11 7 5 3 1 1 1 1 0 0 0 0 0 0 0 0 0 0 0 0 0
0 0 0 0 0 0 0 0 1 2 2 3 5 7 9 8 7 8 13 19 21 17 13 10 8 4 2 1 2 1 0 0 0 0 0 0 0 0 0 0 0 0 0
0 0 0 0 0 0 0 0 0 0 0 1 1 1 1 1 1 3 8 12 14 12 9 9 8 6 3 1 1 1 0 0 0 0 0 0 0 0 0 0 0 0 0
0 0 0 0 0 0 0 0 0 0 0 0 0 0 0 0 0 1 3 4 4 4 3 4 5 5 4 1 0 0 0 0 0 0 0 0 0 0 0 0 0 0 0
0 0 0 0 0 0 0 0 0 0 0 0 0 0 0 0 0 0 0 0 0 0 0 1 2 3 2 1 0 0 0 0 0 0 0 0 0 0 0 0 0 0 0
0 0 0 0 0 0 0 0 0 0 0 0 0 0 0 0 0 0 0 0 0 0 0 0 0 1 1 0 0 0 0 0 0 0 0 0 0 0 0 0 0 0 0
0 0 0 0 0 0 0 0 0 0 0 0 0 0 0 0 0 0 0 0 0 0 0 0 0 0 0 0 0 0 0 0 0 0 0 0 0 0 0 0 0 0 0
0 0 0 0 0 0 0 0 0 0 0 0 0 0 0 0 0 0 0 0 0 0 0 0 0 0 0 0 0 0 0 0 0 0 0 0 0 0 0 0 0 0 1
0 0 0 0 0 0 0 0 0 0 0 0 0 0 0 0 0 0 0 0 0 0 0 0 0 0 0 0 0 0 0 0 0 0 0 0 0 0 0 0 0 0 1
0 0 0 0 0 0 0 0 0 0 0 0 0 0 0 0 0 0 0 0 0 0 0 0 0 0 0 0 0 0 0 0 0 0 0 0 0 0 0 0 0 0 1
0 0 0 0 0 0 0 0 0 0 0 0 0 0 0 0 0 0 0 0 0 0 0 0 0 0 0 0 0 0 0 0 0 0 0 0 0 0 0 0 0 0 0
0 0 0 0 0 0 0 0 0 0 0 0 0 0 0 0 0 0 0 0 0 0 0 0 0 0 0 0 0 0 0 0 0 0 0 0 0 0 0 0 0 0 0
0 0 0 0 0 0 0 0 0 0 0 0 0 0 0 0 0 0 0 0 0 0 0 0 0 0 0 0 0 0 0 0 0 0 0 0 0 0 0 0 0 0 0
0 0 0 0 0 0 0 0 0 0 0 0 0 0 0 0 0 0 0 0 0 0 0 0 0 0 0 0 0 0 0 0 0 0 0 0 0 0 0 0 0 0 0
0 0 0 0 0 0 0 0 0 0 0 0 0 0 0 0 0 0 0 0 0 0 0 0 0 0 0 0 0 0 0 0 0 0 0 0 0 0 0 0 0 0 0
0 0 0 0 0 0 0 0 0 0 0 0 0 0 0 0 0 0 0 0 0 0 0 0 0 0 0 0 0 0 0 0 0 0 0 0 0 0 0 0 0 0 0
0 0 0 0 0 0 0 0 0 0 0 0 0 0 0 0 0 0 0 0 0 0 0 0 0 0 0 0 0 0 0 0 0 0 0 0 0 0 0 0 0 0 0
Wind_Speed
2 3 6 7 7 6 6 6 7 7 7 8 8 8 8 7 7 7 6 6 5 5 5 5 5 5 6 6 6 6 6 6 5 5 5 5 5 5 6 6 6 4 8
3 3 7 7 6 6 5 5 5 6 6 7 7 7 7 6 6 6 5 5 5 5 4 4 4 4 4 5 5 5 5 4 4 4 4 4 4 5 5 6 6 4 7
3 2 4 6 6 5 5 5 5 5 5 6 6 6 6 6 6 6 6 5 5 5 4 4 3 3 3 3 3 4 4 3 3 3 3 2 1 3 4 5 5 6 6
3 2 2 4 4 4 4 4 5 5 5 5 5 6 6 6 6 6 6 6 6 5 5 4 3 3 3 3 3 3 3 3 2 3 2 1 0 3 4 4 5 6 6
3 2 1 2 2 2 2 3 3 3 4 5 5 6 7 7 7 7 7 6 6 6 6 5 5 4 3 3 2 2 1 2 2 3 1 1 0 2 4 4 4 5 6
2 2 1 2 1 0 1 2 2 3 4 4 5 6 6 7 7 7 7 7 7 7 7 6 6 6 4 3 2 2 1 1 3 2 1 1 1 3 4 4 4 5 5
2 2 2 3 2 2 3 3 3 4 5 5 5 6 6 6 7 7 7 8 8 7 7 7 7 7 6 5 4 3 1 1 2 1 1 1 2 4 5 5 5 5 5
2 3 3 4 4 4 4 4 5 5 6 6 7 7 7 7 8 8 8 8 8 8 8 8 8 8 7 6 5 4 3 2 1 1 1 1 4 5 6 6 6 6 6
3 3 3 3 4 6 6 6 6 6 6 6 7 7 7 8 8 9 8 8 8 8 8 9 8 8 8 7 6 5 4 2 1 1 2 2 5 6 6 7 7 6 6
2 2 2 3 3 3 4 6 7 7 7 7 7 7 7 7 7 8 8 8 8 9 9 9 8 8 8 8 7 6 5 2 2 2 1 3 6 7 7 7 8 7 7
1 2 2 2 2 3 3 5 6 7 7 7 6 7 6 3 3 4 6 8 8 8 8 7 7 8 8 7 7 6 4 1 2 2 2 5 7 7 7 8 8 8 7
0 1 1 1 2 3 3 3 3 3 4 3 3 3 2 2 2 3 6 8 8 8 7 6 7 6 4 1 3 4 1 1 2 2 3 7 8 8 8 9 9 9 8
1 0 1 1 2 2 2 2 2 2 2 3 3 3 2 2 2 2 2 3 4 5 3 3 3 2 2 2 2 2 2 2 2 2 3 8 8 8 8 9 10 9 9
2 1 0 1 1 2 2 2 2 2 2 2 3 3 2 1 2 2 1 2 2 1 2 2 1 1 2 2 3 3 3 2 2 2 3 8 8 8 9 9 10 10 10
3 2 1 0 1 2 2 2 2 2 2 2 2 2 2 1 2 2 2 2 2 1 1 2 1 2 2 2 3 3 3 4 3 3 3 7 7 8 9 9 10 11 11
3 3 1 0 1 1 2 2 2 2 2 2 2 3 2 1 2 2 2 2 2 2 2 2 2 1 2 2 3 3 3 3 3 3 3 4 7 7 8 9 10 11 11
4 2 2 1 0 1 2 2 2 2 2 2 2 3 3 2 2 2 2 2 2 2 2 1 2 1 1 2 2 3 3 4 3 4 3 2 3 5 7 9 10 11 12
3 2 1 0 1 1 2 2 2 2 2 2 2 3 4 4 3 2 2 2 3 2 1 1 1 1 1 2 2 3 3 3 4 4 3 3 2 2 4 7 9 10 11
4 3 1 0 0 1 2 2 2 2 2 2 2 3 3 4 3 2 2 2 3 2 1 1 0 1 1 2 2 3 3 3 3 3 3 3 3 2 2 4 7 9 10
3 2 1 0 0 1 2 2 2 2 2 2 2 3 4 3 4 3 2 3 3 2 2 1 1 1 1 2 2 2 2 3 3 3 3 3 3 3 3 3 3 5 10
2 2 2 1 1 1 1 1 2 2 2 2 3 3 4 4 4 3 2 3 3 2 2 2 1 1 1 1 0 1 1 2 3 3 3 2 3 3 3 3 3 3 4
3 3 3 3 2 1 1 1 1 1 2 2 3 3 4 4 4 3 3 2 2 2 3 2 1 1 1 0 1 0 1 2 1 2 2 3 3 2 3 4 4 4 4
4 5 4 4 3 2 1 0 1 2 2 3 3 3 4 4 4 3 3 2 3 2 2 2 1 0 1 1 0 1 1 1 1 1 1 1 2 2 2 3 4 5 5
6 5 4 4 3 2 1 0 0 0 1 2 2 3 4 4 4 3 3 3 2 2 2 2 1 0 0 1 1 1 1 1 1 1 2 1 1 2 3 3 4 5 5
5 4 4 3 3 2 1 1 1 1 1 2 2 3 4 4 4 4 3 3 3 2 2 2 2 1 0 1 1 0 0 0 0 1 1 2 1 1 2 3 3 4 5
4 4 4 4 4 3 2 2 2 2 2 2 3 3 3 3 3 4 4 3 2 2 2 2 2 1 1 0 1 1 1 1 1 1 1 1 2 2 2 2 3 3 3
Wind_Direction
219 208 198 170 157 149 147 151 153 151 148 146 144 143 142 141 138 134 131 127 123 120 112 104 100 97 95 92 88 86 84 84 87 88 92 92 91 95 101 105 102 99 107
192 190 189 169 161 157 159 162 166 168 164 162 161 159 158 157 155 153 152 148 144 138 132 121 113 106 101 100 95 88 84 82 87 90 89 90 97 103 107 112 114 121 119
127 155 174 172 167 165 170 179 183 185 185 181 180 179 179 179 178 178 178 175 170 164 157 151 141 133 121 112 102 91 82 78 85 97 94 72 89 119 120 124 124 125 125
111 108 146 172 172 177 187 194 201 205 210 207 203 202 201 200 199 199 196 194 192 188 181 178 178 173 157 141 125 103 85 70 73 93 101 130 200 141 140 138 134 131 131
87 87 120 151 161 185 209 218 226 231 234 233 230 225 222 218 217 217 215 210 209 207 201 199 200 201 195 179 161 138 103 73 73 81 105 137 200 177 158 153 144 142 137
75 65 72 95 88 16 301 285 280 274 269 265 260 254 245 239 238 237 235 228 226 223 218 213 210 212 214 212 200 190 153 90 88 86 118 169 204 207 179 169 160 157 150
77 44 36 58 41 12 352 345 334 320 306 297 289 279 273 266 258 253 250 246 242 238 234 227 221 219 222 224 223 222 224 187 131 122 144 195 220 215 192 181 175 170 163
76 44 26 22 19 7 358 347 335 327 319 314 312 306 297 289 280 270 262 259 253 248 243 240 233 229 228 228 229 231 232 234 150 141 170 212 227 216 202 193 186 176 170
60 48 27 17 10 4 359 348 338 330 326 325 321 322 314 306 295 285 279 273 266 258 252 249 245 240 238 237 235 237 239 227 168 198 215 212 235 224 209 198 191 184 178
53 41 18 10 10 3 354 353 351 345 340 337 333 331 327 325 318 308 299 293 284 272 262 257 252 248 244 245 245 245 246 231 195 216 222 237 241 233 217 202 196 190 185
41 25 18 10 1 352 342 356 357 352 349 349 344 339 346 344 330 312 306 301 293 284 275 270 263 255 252 250 256 261 260 199 212 225 227 250 249 239 222 205 200 194 191
197 339 8 9 357 356 358 6 355 351 345 343 335 336 335 332 316 315 315 314 307 300 292 273 263 259 254 261 273 277 265 228 228 234 236 248 251 241 223 209 201 197 191
189 141 19 355 356 5 353 348 350 342 341 340 341 339 336 336 323 326 320 318 319 316 312 293 272 239 206 205 233 234 238 236 227 240 248 252 250 243 225 212 201 199 194
160 170 166 17 21 12 6 351 348 342 341 343 340 345 347 338 331 323 312 306 311 304 292 287 252 229 218 210 219 225 232 231 228 233 248 253 248 241 228 217 205 201 198
171 184 190 49 38 9 5 348 4 346 339 336 341 345 352 334 322 321 311 309 306 297 286 283 262 223 211 214 229 223 229 234 231 230 244 249 246 240 232 220 210 204 200
189 195 198 152 27 20 11 358 350 343 339 345 348 346 351 342 328 325 321 321 311 304 286 275 275 247 221 207 227 227 230 234 232 231 232 249 250 240 229 222 218 210 203
191 196 207 198 67 29 13 358 359 349 354 358 351 352 360 355 340 336 328 324 312 307 298 287 280 246 233 227 228 230 223 225 229 234 235 235 244 235 222 217 220 216 208
181 192 225 161 79 25 12 354 350 355 2 356 349 351 357 356 353 349 344 327 319 316 308 288 269 249 235 227 231 233 226 223 232 233 229 227 229 230 220 216 215 216 212
184 184 184 103 47 356 2 358 357 1 6 355 353 352 350 351 357 0 348 330 332 332 325 310 275 224 238 239 234 228 224 226 227 234 228 226 223 215 209 218 218 214 211
171 170 174 208 298 350 357 357 0 7 1 358 355 349 352 349 352 355 348 346 348 350 340 333 308 268 242 250 258 252 228 228 223 224 229 223 217 214 205 204 211 219 214
160 173 199 225 264 2 9 355 351 340 333 341 343 348 351 350 350 352 354 354 357 358 338 328 315 314 291 258 284 310 296 239 231 228 222 218 218 216 201 200 195 202 214
184 199 219 235 247 246 234 253 255 282 300 300 317 343 352 353 349 356 2 351 349 350 357 358 355 347 316 343 135 100 325 331 284 238 220 217 219 210 214 215 202 203 204
205 210 217 227 235 245 249 24 16 12 354 351 344 340 339 343 347 354 358 352 347 351 342 336 340 16 317 313 230 159 161 237 305 317 255 232 210 200 212 214 213 212 207
216 214 221 226 234 242 207 140 104 59 315 295 301 310 322 339 348 356 359 356 349 347 338 324 8 333 238 296 312 288 219 183 184 334 332 311 257 223 216 220 219 215 209
211 210 218 225 239 240 222 204 181 244 261 291 307 325 336 338 346 354 354 355 351 346 340 340 352 6 288 227 246 286 291 342 187 189 286 313 315 272 240 230 219 218 210
217 216 217 224 243 240 231 225 216 242 269 304 321 332 333 329 332 345 348 349 345 346 338 333 342 359 358 273 243 222 204 188 186 193 228 266 280 280 265 245 228 222 213